Location: Clanezzo
(45.7500°N, 9.6000°E)
Time: 13:01:54
(UTC+00:00)

AO-92 - Pass Details

Date: 03 July 2022
Orbit: 470 x 481 km, 97.4° (Epoch: 07 August)

Event Time Altitude Azimuth Distance (km) Brightness Sun altitude
Exits shadow 21:58:07 24° 226° (SW) 1,019 ? -18.5°
Maximum altitude 21:59:20 31° 263° (W) 869 ? -18.6°
Drops below altitude 10° 22:02:34 10° 328° (NNW) 1,669 ? -18.8°
Sets 22:04:48 0° 338° (NNW) 2,556 ? -18.9°
